Regional Weather Roundup
Issued by NWS

Home | Current Version | Previous Version | Graphics & Text | Print | Product List | Glossary On
Versions: 1 2 3 4 5 6 7 8 9 10 11 12 13 14 15 16 17 18 19 20 21 22 23 24 25 26 27 28 29 30 31 32 33 34 35 36 37 38 39 40 41 42 43 44 45 46 47 48 49 50
000
ASUS43 KIND 270609
RWRIN

WEATHER ROUNDUP FOR INDIANA
NATIONAL WEATHER SERVICE INDIANAPOLIS IN
100 AM EST FRI FEB 27 2015

NOTE: "FAIR" INDICATES FEW OR NO CLOUDS BELOW 12,000 FEET WITH NO
SIGNIFICANT WEATHER AND/OR OBSTRUCTIONS TO VISIBILITY.

* - STATION DOES NOT REPORT WEATHER SUCH AS PRECIPITATION OR FOG.

+ - STATION NOT QUALITY CONTROLLED BY THE NATIONAL WEATHER SERVICE.
    USE DATA WITH CAUTION...ESPECIALLY DEWPOINT AND RELATIVE
    HUMIDITY OBSERVATIONS.

INZ001>003-010>013-019-020-270700-
NORTHWEST INDIANA

CITY           SKY/WX    TMP DP  RH WIND       PRES   REMARKS
GARY /AIRPORT/ PTCLDY     7  -7  52 W8        30.42S WCI  -5
KNOX *+          N/A     12   1  62 CALM      30.39S
LA PORTE +     LGT SNOW  11   8  87 CALM      30.39R
6HR MIN TEMP:   3; 6HR MAX TEMP:  15;

MICHIGAN CITY+ LGT SNOW  12   7  79 CALM      30.41R
MONTICELLO +   LGT SNOW   6   2  84 W6        30.41R WCI  -5
6HR MIN TEMP:   0; 6HR MAX TEMP:  11;

RENSSELAER +   CLEAR      1  -2  85 W6        30.42R WCI -10
VALPARAISO     PTCLDY     4  -3  73 W9        30.39R WCI -10
6HR MIN TEMP:   4; 6HR MAX TEMP:  14; 6HR PCP:  0.01;


$$

LMZ046-743>745-270700-
SOUTHERN LAKE MICHIGAN

STATION/POSITION TIME  TEMP WIND        PRES
                       AIR  DIR/SP/G
                 (UTC) (F)  (DEG/KT/KT) (MB)
MICHIGAN CITY    0600   12   40/  6/  7   N/A

$$

INZ004-005-014>016-021>024-270700-
NORTH CENTRAL INDIANA

CITY           SKY/WX    TMP DP  RH WIND       PRES   REMARKS
GOSHEN         PTCLDY    -1  -8  72 CALM      30.36R
6HR MIN TEMP:  -3; 6HR MAX TEMP:  12;

LOGANSPORT +   CLOUDY     5   3  92 W5        30.40R WCI  -4
PERU/GRISSOM   MOCLDY     7   1  78 NW7       30.37R WCI  -5
ROCHESTER +    MOCLDY    10   5  79 W3        30.39R
SOUTH BEND     PTCLDY     3  -2  79 NW5       30.38R WCI  -6
6HR MIN TEMP:   1; 6HR MAX TEMP:  11;

WARSAW +       MOCLDY     1  -4  78 CALM      30.36S

$$

INZ006>009-017-018-025>027-270700-
NORTHEAST INDIANA

CITY           SKY/WX    TMP DP  RH WIND       PRES   REMARKS
ANGOLA *+      CLEAR     -6 -11  77 CALM      30.34R
AUBURN +       CLEAR      1  -4  78 CALM      30.36R
FORT WAYNE     PTCLDY     3  -5  69 NW3       30.37R
6HR MIN TEMP:   3; 6HR MAX TEMP:  15; 6HR PCP: TRACE;

HUNTINGTON +   CLEAR      4  -8  57 NW3       30.37R
6HR MIN TEMP:   4; 6HR MAX TEMP:  15;


$$

INZ028-029-035-036-043>045-051>053-270700-
WEST CENTRAL INDIANA

CITY           SKY/WX    TMP DP  RH WIND       PRES   REMARKS
CRAWFORDSVL +  FLURRIES   5   0  79 NW7       30.40R WCI  -7
6HR MIN TEMP:   3; 6HR MAX TEMP:  12;

GREENCASTLE +  FLURRIES   9   1  72 NW3       30.40S
LAFAYETTE      CLOUDY     8   0  69 NW10      30.42R WCI  -6
6HR MIN TEMP:   7; 6HR MAX TEMP:  13; 6HR PCP: TRACE;

TERRE HAUTE    CLOUDY     9   5  84 NW5       30.44R WCI   1
6HR MIN TEMP:   9; 6HR MAX TEMP:  19; 6HR PCP: TRACE;


$$

INZ030>032-037>040-046>048-054>057-064-065-270700-
CENTRAL INDIANA

CITY           SKY/WX    TMP DP  RH WIND       PRES   REMARKS
CP ATTERBURY + CLEAR     12   3  67 NW5       30.40R WCI   4
FRANKFORT +    FLURRIES   9   5  84 W3        30.40S
6HR MIN TEMP:  -1; 6HR MAX TEMP:  14;

GREENWOOD *+   CLEAR      9   0  66 CALM      30.39R
INDIANAPOLIS   CLEAR      5  -1  76 NW8       30.38R WCI  -8
6HR MIN TEMP:   5; 6HR MAX TEMP:  18; 6HR PCP: TRACE;

-EAGLE CREEK   CLEAR      4  -1  80 NW7       30.38S WCI  -8
6HR MIN TEMP:   4; 6HR MAX TEMP:  17; 6HR PCP: TRACE;

KOKOMO *+      CLEAR      3  -6  66 NW5       30.38R WCI  -6
6HR MIN TEMP:   3; 6HR MAX TEMP:  16;

MARION +       CLEAR      2  -4  74 NW3       30.37S
MT COMFORT *+  CLEAR      7  -8  51 NW6       30.38R WCI  -3
SHELBYVILLE    CLEAR      6  -3  66 NW5       30.38R WCI  -3
6HR MIN TEMP:   3; 6HR MAX TEMP:  16;

ZIONSVILLE +   CLEAR     -2  -7  79 CALM      30.38S
6HR MIN TEMP:  -3; 6HR MAX TEMP:  17;


$$

INZ033-034-041-042-049-050-058-059-270700-
EAST CENTRAL INDIANA

CITY           SKY/WX    TMP DP  RH WIND       PRES   REMARKS
MUNCIE         CLEAR      4  -4  69 NW8       30.36R WCI  -9
6HR MIN TEMP:   4; 6HR MAX TEMP:  14; 6HR PCP: TRACE;


$$

INZ060-061-067>069-081>083-085>088-270700-
SOUTHWEST INDIANA

CITY           SKY/WX    TMP DP  RH WIND       PRES   REMARKS
EVANSVILLE     CLEAR     18   6  59 N10       30.44S WCI   6
6HR MIN TEMP:  18; 6HR MAX TEMP:  26;

HUNTINGBURG *+ CLEAR     16   9  73 N12G17    30.42R WCI   3
6HR MIN TEMP:  16; 6HR MAX TEMP:  25;

WASHINGTON +   PTCLDY     5  -4  67 N8        30.44R WCI  -8
6HR MIN TEMP:   4; 6HR MAX TEMP:  21;


$$

INZ062-063-066-070>080-084-089>092-270700-
SOUTH CENTRAL AND SOUTHEAST INDIANA

CITY           SKY/WX    TMP DP  RH WIND       PRES   REMARKS
BLOOMINGTON    CLEAR      8   0  69 CALM      30.39R
6HR MIN TEMP:   7; 6HR MAX TEMP:  17; 6HR PCP: TRACE;

NORTH VERNON + CLOUDY    12   7  79 CALM      30.38S
SEYMOUR +      CLOUDY    16   9  73 N3        30.40R

$$



USA.gov is the U.S. government's official web portal to all federal, state and local government web resources and services.